Weather History for Prague, Czech Republic

Change the Weather History Date:

Tuesday, August 14, 2012

  Actual Average Record
Temperature  
Mean Temperature 59 °F -  
Max Temperature 74 °F 70 °F 86 °F (2003)
Min Temperature 44 °F 50 °F 44 °F (1999)
Degree Days  
Heating Degree Days 6    
Growing Degree Days 9 (Base 50)    
Moisture  
Dew Point 43 °F    
Average Humidity 53    
Maximum Humidity 82    
Minimum Humidity 25    
Precipitation  
Precipitation 0.00 in 0.07 in - ()
Sea Level Pressure  
Sea Level Pressure 30.03 in    
Wind  
Wind Speed 3 mph ()    
Max Wind Speed 12 mph    
Max Gust Speed -    
Visibility 6.2 miles    
Events      
Averages and records for this station are not official NWS values.
T = Trace of Precipitation, MM = Missing Value Source: Averaged Metar Reports

Daily Weather History Graph

Daily Weather History Graph

Search for Another Location

Airport:

Trip Planner

Search our weather history database for the weather conditions in past years. The results will help you decide how hot, cold, wet, or windy it might be!

Date:

Astronomy

Aug. 14, 2012 Rise Set
Actual Time 5:51 AM CEST 8:22 PM CEST
Civil Twilight 5:14 AM CEST 8:58 PM CEST
Nautical Twilight 4:28 AM CEST 9:44 PM CEST
Astronomical Twilight 3:34 AM CEST 10:38 PM CEST
Moon 2:21 AM CEST (8/14) 6:13 PM CEST (8/14)
Length of Visible Light 15h 43m
Length of Day
14h 31m
Waning Crescent, 11% of the Moon is Illuminated
Aug 14
Waning Crescent
Aug 17
New
Aug 24
First Quarter
Aug 31
Full
Sep 8
Last Quarter

Hourly Weather History & Observations

Time (CEST) Temp. Windchill Dew Point Humidity Pressure Visibility Wind Dir Wind Speed Gust Speed Precip Events Conditions
12:00 AM 57.2 °F - 41.0 °F 55% 30.04 in - NE 3.5 mph - N/A   Clear
12:30 AM 55.4 °F - 39.2 °F 54% 30.04 in - Variable 2.3 mph - N/A   Clear
1:00 AM 50.0 °F - 39.2 °F 66% 30.04 in - West 2.3 mph - N/A   Clear
1:30 AM 51.8 °F - 39.2 °F 62% 30.04 in - Variable 2.3 mph - N/A   Clear
2:00 AM 50 °F - 40 °F 60% 30.07 in 31 mi NNW 2.2 mph - -  
2:00 AM 50.0 °F - 41.0 °F 71% 30.04 in - NNE 3.5 mph - N/A   Clear
2:30 AM 50.0 °F - 41.0 °F 71% 30.04 in - Variable 2.3 mph - N/A   Clear
3:00 AM 48.2 °F - 39.2 °F 71% 30.04 in - North 3.5 mph - N/A   Clear
3:30 AM 46.4 °F 45.2 °F 39.2 °F 76% 30.04 in - WNW 3.5 mph - N/A   Clear
4:00 AM 48.2 °F - 41.0 °F 76% 30.04 in - NNW 2.3 mph - N/A   Clear
4:30 AM 46.4 °F - 39.2 °F 76% 30.04 in - Variable 2.3 mph - N/A   Clear
5:00 AM 46.4 °F 45.2 °F 41.0 °F 81% 30.04 in - North 3.5 mph - N/A   Clear
5:30 AM 44.6 °F - 39.2 °F 81% 30.04 in - Variable 2.3 mph - N/A   Clear
6:00 AM 44.6 °F - 39.2 °F 81% 30.04 in - Calm Calm - N/A   Clear
6:30 AM 44.6 °F - 39.2 °F 81% 30.04 in - Calm Calm - N/A   Clear
7:00 AM 48.2 °F - 42.8 °F 82% 30.04 in - Variable 2.3 mph - N/A   Clear
7:30 AM 51.8 °F - 44.6 °F 76% 30.04 in - WSW 2.3 mph - N/A   Clear
8:00 AM 56 °F - 46 °F 60% 30.05 in 31 mi SE 2.2 mph - -   Clear
8:00 AM 57.2 °F - 46.4 °F 67% 30.04 in - Variable 2.3 mph - N/A   Clear
8:30 AM 59.0 °F - 48.2 °F 67% 30.04 in - Variable 2.3 mph - N/A   Clear
9:00 AM 60.8 °F - 48.2 °F 63% 30.04 in - Variable 2.3 mph - N/A   Clear
9:30 AM 62.6 °F - 48.2 °F 59% 30.04 in - NE 3.5 mph - N/A   Clear
10:00 AM 64.4 °F - 46.4 °F 52% 30.04 in - NNW 3.5 mph - N/A   Clear
10:30 AM 64.4 °F - 46.4 °F 52% 30.04 in - Variable 2.3 mph - N/A   Clear
11:00 AM 66.2 °F - 46.4 °F 49% 30.04 in 6.2 mi Variable 2.3 mph - N/A   Partly Cloudy
11:30 AM 68.0 °F - 42.8 °F 40% 30.04 in - Variable 2.3 mph - N/A   Clear
12:00 PM 69.8 °F - 44.6 °F 40% 30.04 in - North 6.9 mph - N/A   Clear
12:30 PM 69.8 °F - 44.6 °F 40% 30.04 in - Variable 2.3 mph - N/A   Clear
1:00 PM 69.8 °F - 44.6 °F 40% 30.04 in - WNW 8.1 mph - N/A   Clear
1:30 PM 71.6 °F - 44.6 °F 38% 30.04 in - NNW 6.9 mph - N/A   Clear
2:00 PM 72 °F - 44 °F 26% 29.99 in 44 mi North 4.5 mph - -   Scattered Clouds
2:00 PM 71.6 °F - 44.6 °F 38% 30.01 in - North 6.9 mph - N/A   Clear
2:30 PM 71.6 °F - 42.8 °F 35% 30.01 in - North 6.9 mph - N/A   Clear
3:00 PM 73.4 °F - 42.8 °F 33% 30.01 in - NNE 5.8 mph - N/A   Clear
3:30 PM 73.4 °F - 42.8 °F 33% 30.01 in - NNW 5.8 mph - N/A   Clear
4:00 PM 73.4 °F - 41.0 °F 31% 30.01 in - NNW 10.4 mph - N/A   Clear
4:30 PM 75.2 °F - 42.8 °F 31% 30.01 in - North 11.5 mph - N/A   Clear
5:00 PM 73.4 °F - 41.0 °F 31% 30.01 in - North 9.2 mph - N/A   Clear
5:30 PM 73.4 °F - 41.0 °F 31% 30.01 in - WNW 4.6 mph - N/A   Clear
6:00 PM 73.4 °F - 41.0 °F 31% 30.01 in - West 4.6 mph - N/A   Clear
6:30 PM 73.4 °F - 42.8 °F 33% 29.98 in - North 5.8 mph - N/A   Clear
7:00 PM 71.6 °F - 42.8 °F 35% 29.98 in - NE 4.6 mph - N/A   Clear
7:30 PM 69.8 °F - 41.0 °F 35% 29.98 in - NNE 6.9 mph - N/A   Clear
8:00 PM 69 °F - 41 °F 25% 29.97 in 47 mi NE 8.9 mph - -   Clear
8:00 PM 69.8 °F - 41.0 °F 35% 30.01 in - NE 5.8 mph - N/A   Clear
8:30 PM 68.0 °F - 42.8 °F 40% 30.01 in - NE 5.8 mph - N/A   Clear
9:00 PM 62.6 °F - 46.4 °F 55% 30.01 in - NE 6.9 mph - N/A   Clear
9:30 PM 62.6 °F - 44.6 °F 52% 30.04 in - East 3.5 mph - N/A   Clear
10:00 PM 60.8 °F - 46.4 °F 59% 30.04 in - ENE 5.8 mph - N/A   Clear
10:30 PM 60.8 °F - 46.4 °F 59% 30.04 in - ENE 6.9 mph - N/A   Clear
11:00 PM 60.8 °F - 44.6 °F 55% 30.04 in - East 2.3 mph - N/A   Clear
11:30 PM 59.0 °F - 46.4 °F 63% 30.04 in - East 2.3 mph - N/A   Clear